Regional Weather Roundup
Issued by NWS Little Rock, AR

Home | Current Version | Previous Version | Text Only | Print | Product List | Glossary Off
Versions: 1 2 3 4 5 6 7 8 9 10 11 12 13 14 15 16 17 18 19 20 21 22 23 24 25 26 27 28 29 30 31

000
ASUS44 KLZK 020205
RWRLZK

WEATHER ROUNDUP FOR ARKANSAS
NATIONAL WEATHER SERVICE LITTLE ROCK AR
800 PM CST THU DEC 01 2016

NOTE: "FAIR" INDICATES FEW OR NO CLOUDS BELOW 12,000 FEET WITH NO
SIGNIFICANT WEATHER AND/OR OBSTRUCTIONS TO VISIBILITY.

ARZ001-003-010-029-020300-
NORTHWEST ARKANSAS

CITY           SKY/WX    TMP DP  RH WIND       PRES   REMARKS
FAYETTEVILLE   CLEAR     34  27  75 CALM      30.05R
FORT SMITH     CLEAR     46  28  49 CALM      30.05R
HARRISON       CLEAR     42  24  49 CALM      30.06R
BENTONVILLE    CLEAR     43  23  45 CALM      30.04S
ROGERS         CLEAR     41  26  55 SE3       30.05R
SILOAM SPGS    CLEAR     45  21  39 SE5       30.04R
HIGHFILL       CLEAR     38  24  57 CALM      30.04R
SPRINGDALE     CLEAR     37  27  65 CALM      30.06R
$$

ARZ004-005-016-020300-
NORTH CENTRAL ARKANSAS

CITY           SKY/WX    TMP DP  RH WIND       PRES   REMARKS
BATESVILLE     CLEAR     43  30  61 CALM      30.09S
FLIPPIN        CLEAR     39  27  60 CALM      30.05R
MTN HOME       CLEAR     43  25  49 S5        30.06S
$$

ARZ040-041-020300-
WEST CENTRAL ARKANSAS

CITY           SKY/WX    TMP DP  RH WIND       PRES   REMARKS
MENA           PTCLDY    37  32  81 CALM      30.07R
MOUNT IDA      CLEAR     42  30  62 CALM      30.05R
$$

ARZ009-017-025-026-028-020300-
NORTHEAST ARKANSAS

CITY           SKY/WX    TMP DP  RH WIND       PRES   REMARKS
CORNING        FAIR      39  36  87 S7        30.09S
JONESBORO      CLEAR     40  34  79 CALM      30.10R
NEWPORT        CLEAR     43  36  76 MISG        N/A
WALNUT RIDGE   CLEAR     45  30  57 S6        30.09R
BLYTHEVILLE    CLEAR     43  34  70 S5        30.10R
$$

ARZ022-023-033-042-044-020300-
CENTRAL ARKANSAS

CITY           SKY/WX    TMP DP  RH WIND       PRES   REMARKS
LITTLE ROCK    CLEAR     49  30  48 CALM      30.09S
N LITTLE ROCK    N/A     48  30  49 SW3       30.11S
JACKSONVILLE   CLEAR     38  32  78 E2        30.08R
SEARCY         CLEAR     37  32  82 CALM      30.11S
HOT SPRINGS    CLEAR     42  32  67 NE6       30.08S
RUSSELLVILLE   CLEAR     38  32  79 CALM      30.06S
$$

ARZ036-020300-
EAST ARKANSAS

CITY           SKY/WX    TMP DP  RH WIND       PRES   REMARKS
WEST MEMPHIS   CLEAR     40  31  70 S5        30.11R
$$

ARZ050-053-066-070-073-020300-
SOUTHWEST ARKANSAS

CITY           SKY/WX    TMP DP  RH WIND       PRES   REMARKS
ARKADELPHIA    FAIR      41  39  93 CALM      30.10R
CAMDEN         CLEAR     39  34  81 CALM      30.10S
TEXARKANA      CLEAR     49  28  44 SE6       30.08R
EL DORADO      CLEAR     41  37  86 S3        30.11R
DE QUEEN       CLEAR     40  37  89 CALM      30.06R
$$

ARZ056-057-069-020300-
SOUTHEAST ARKANSAS

CITY           SKY/WX    TMP DP  RH WIND       PRES   REMARKS
PINE BLUFF     CLEAR     44  36  73 S3        30.11R
STUTTGART      CLEAR     46  34  61 SE7       30.11R
MONTICELLO     CLEAR     41  36  82 CALM      30.11S HAZE

$$






USA.gov is the U.S. government's official web portal to all federal, state and local government web resources and services.